{"data":{"norad_id":65167,"intl_designator":"2025-174D","name":"HULIANWANG DIGUI-61","alt_names":[],"object_type":"PAYLOAD","status":"ACTIVE","operator":null,"country":"PRC","launch_date":"2025-08-13","launch_site_code":"WSC","launch_vehicle":null,"mission":null,"orbit_class":"UNKNOWN","rcs_meters":null,"size_class":null,"mass_kg":null,"dimensions":null,"purposes":[],"wikipedia_slug":null,"has_3d_model":false,"image_url":null,"decayed_at":null,"tle_current":{"epoch":"2026-09-21T21:58:46.832448Z","epoch_age_seconds":42842,"freshness":"FRESH","line1":"1 65167U 25174D   26264.91581982  .00000049  00000+0  79979-4 0  9994","line2":"2 65167  86.4994 219.3776 0002357  77.2445 282.8952 13.24400154 53590","mean_motion":13.24400154,"eccentricity":0.0002357,"inclination_deg":86.4994,"raan_deg":219.3776,"arg_perigee_deg":77.2445,"mean_anomaly_deg":282.8952,"bstar":7.9979e-5,"rev_number":5359,"period_min":108.72846817866,"perigee_km":1166.1809704391,"apogee_km":1169.7382003695,"semimajor_km":7546.0965854043,"source":"CELESTRAK","updated_at":"2026-09-22T09:00:30.163803Z"}}}